Orbital Elements at Epoch 2459200.5 (2020-Dec-17.0) TDB
Reference: JPL 19 (heliocentric ecliptic J2000)
Element | Value | Uncertainty (1-sigma) | Units |
e | .06114564776467327 | 4.0389e-08 | |
a | 2.561321825609388 | 1.5191e-08 | au |
q | 2.404708143448707 | 1.0371e-07 | au |
i | 4.812924084748873 | 4.6757e-06 | deg |
node | 194.4003586273078 | 5.4107e-05 | deg |
peri | 303.8689150994805 | 6.7497e-05 | deg |
M | 321.7592827550434 | 4.3141e-05 | deg |
tp | 2459359.544326287266 (2021-May-25.04432629) | 0.00017992 | TDB |
period | 1497.251139319746 4.10 | 1.332e-05 3.647e-08 | d yr |
n | .2404406251870081 | 2.139e-09 | deg/d |
Q | 2.717935507770069 | 1.612e-08 | au |
|
| | Orbit Determination Parameters
Additional Information
|